CAL935 RCKH-VHHH

Flight info

Callsign CAL935
Flight time 1h 17m
Altitude 38000
Route PARAS1B PARAS T7 WP521 G581 ELATO V522 ABBEY DCT RIVMI
Aircraft A21N/M-SDE3FGHIRWY/LB1

Departure

Time 2026-04-16 13:49
Airport Kaohsiung International Airport (RCKH)

Arrival

Time 2026-04-16 15:07
Airport Hong Kong International Airport (VHHH)
Time Latitude Longitude Altitude Speed Heading
2026-04-16 13:26 22.57324 120.34227 30 ft 0 kts 271°
2026-04-16 13:35 22.57324 120.34228 30 ft 0 kts 271°
2026-04-16 13:35 22.57325 120.34228 30 ft 0 kts 270°
2026-04-16 13:35 22.57325 120.34237 30 ft 2 kts 273°
2026-04-16 13:36 22.57324 120.34254 30 ft 2 kts 273°
2026-04-16 13:36 22.57323 120.34270 29 ft 2 kts 273°
2026-04-16 13:36 22.57323 120.34285 29 ft 1 kts 274°
2026-04-16 13:36 22.57320 120.34301 29 ft 2 kts 300°
2026-04-16 13:37 22.57311 120.34314 30 ft 2 kts 322°
2026-04-16 13:37 22.57298 120.34322 32 ft 2 kts 345°
2026-04-16 13:37 22.57283 120.34322 33 ft 2 kts
2026-04-16 13:37 22.57275 120.34322 34 ft 0 kts
2026-04-16 13:42 22.57278 120.34322 34 ft 2 kts
2026-04-16 13:42 22.57331 120.34325 28 ft 12 kts
2026-04-16 13:42 22.57383 120.34338 25 ft 9 kts 42°
2026-04-16 13:42 22.57398 120.34396 28 ft 6 kts 90°
2026-04-16 13:43 22.57397 120.34428 30 ft 4 kts 92°
2026-04-16 13:43 22.57395 120.34485 34 ft 9 kts 92°
2026-04-16 13:43 22.57392 120.34544 36 ft 7 kts 92°
2026-04-16 13:43 22.57405 120.34599 37 ft 8 kts 47°
2026-04-16 13:44 22.57468 120.34619 38 ft 11 kts
2026-04-16 13:44 22.57541 120.34652 39 ft 11 kts 54°
2026-04-16 13:44 22.57547 120.34736 39 ft 11 kts 95°
2026-04-16 13:44 22.57544 120.34819 41 ft 10 kts 91°
2026-04-16 13:45 22.57540 120.34923 41 ft 15 kts 91°
2026-04-16 13:45 22.57537 120.35052 35 ft 19 kts 91°
2026-04-16 13:45 22.57532 120.35207 32 ft 21 kts 91°
2026-04-16 13:45 22.57528 120.35365 32 ft 20 kts 92°
2026-04-16 13:46 22.57523 120.35516 33 ft 19 kts 92°
2026-04-16 13:46 22.57518 120.35666 33 ft 19 kts 91°
2026-04-16 13:46 22.57514 120.35809 35 ft 18 kts 92°
2026-04-16 13:46 22.57510 120.35940 37 ft 17 kts 91°
2026-04-16 13:47 22.57506 120.36079 31 ft 20 kts 91°
2026-04-16 13:47 22.57500 120.36249 24 ft 23 kts 92°
2026-04-16 13:47 22.57495 120.36410 28 ft 16 kts 92°
2026-04-16 13:47 22.57522 120.36518 28 ft 16 kts 27°
2026-04-16 13:48 22.57634 120.36514 21 ft 14 kts 323°
2026-04-16 13:48 22.57663 120.36412 16 ft 7 kts 272°
2026-04-16 13:48 22.57667 120.36344 15 ft 14 kts 274°
2026-04-16 13:48 22.57679 120.35948 30 ft 90 kts 271°
2026-04-16 13:49 22.57704 120.35010 34 ft 155 kts 272°
2026-04-16 13:49 22.57715 120.33841 677 ft 154 kts 271°
2026-04-16 13:49 22.57700 120.32689 1395 ft 155 kts 270°
2026-04-16 13:49 22.57707 120.31542 2057 ft 150 kts 273°
2026-04-16 13:50 22.57766 120.30440 2595 ft 147 kts 281°
2026-04-16 13:50 22.57867 120.29332 3032 ft 151 kts 277°
2026-04-16 13:50 22.57922 120.28166 3415 ft 162 kts 274°
2026-04-16 13:50 22.57960 120.26878 3763 ft 178 kts 272°
2026-04-16 13:51 22.57976 120.25488 4132 ft 194 kts 267°
2026-04-16 13:51 22.57526 120.24068 4475 ft 213 kts 236°
2026-04-16 13:51 22.56471 120.22819 4784 ft 236 kts 226°
2026-04-16 13:51 22.55265 120.21509 5219 ft 255 kts 226°
2026-04-16 13:52 22.53967 120.20081 5704 ft 272 kts 226°
2026-04-16 13:52 22.52649 120.18605 6362 ft 281 kts 227°
2026-04-16 13:52 22.51299 120.17083 7155 ft 283 kts 228°
2026-04-16 13:52 22.49930 120.15524 7928 ft 287 kts 228°
2026-04-16 13:53 22.48552 120.13955 8668 ft 291 kts 228°
2026-04-16 13:53 22.47154 120.12365 9387 ft 295 kts 228°
2026-04-16 13:53 22.45752 120.10771 10087 ft 299 kts 229°
2026-04-16 13:53 22.44299 120.09119 10665 ft 308 kts 228°
2026-04-16 13:54 22.42810 120.07391 11006 ft 324 kts 230°
2026-04-16 13:54 22.41325 120.05437 11297 ft 341 kts 234°
2026-04-16 13:54 22.39929 120.03354 11719 ft 351 kts 236°
2026-04-16 13:54 22.38517 120.01193 12388 ft 354 kts 236°
2026-04-16 13:55 22.37096 119.99009 13098 ft 355 kts 236°
2026-04-16 13:55 22.35672 119.96825 13759 ft 357 kts 236°
2026-04-16 13:55 22.34246 119.94643 14382 ft 359 kts 236°
2026-04-16 13:55 22.32801 119.92433 14966 ft 361 kts 236°
2026-04-16 13:56 22.31351 119.90216 15533 ft 363 kts 236°
2026-04-16 13:56 22.29888 119.87976 16016 ft 367 kts 236°
2026-04-16 13:56 22.28407 119.85709 16470 ft 372 kts 236°
2026-04-16 13:56 22.26919 119.83438 16977 ft 374 kts 236°
2026-04-16 13:57 22.25398 119.81115 17471 ft 377 kts 236°
2026-04-16 13:57 22.23878 119.78800 17939 ft 380 kts 236°
2026-04-16 13:57 22.22394 119.76479 18387 ft 381 kts 239°
2026-04-16 13:58 22.20233 119.71257 19280 ft 383 kts 254°
2026-04-16 13:58 22.19580 119.68449 19727 ft 384 kts 257°
2026-04-16 13:58 22.18990 119.65655 20129 ft 387 kts 257°
2026-04-16 13:58 22.18392 119.62814 20532 ft 389 kts 257°
2026-04-16 13:59 22.17783 119.59959 20850 ft 394 kts 257°
2026-04-16 13:59 22.17159 119.57056 21189 ft 398 kts 257°
2026-04-16 13:59 22.16607 119.54163 21578 ft 400 kts 260°
2026-04-16 13:59 22.16219 119.51183 21977 ft 401 kts 264°
2026-04-16 14:00 22.16012 119.48173 22353 ft 403 kts 267°
2026-04-16 14:00 22.15919 119.45144 22729 ft 405 kts 268°
2026-04-16 14:00 22.15839 119.42108 23095 ft 407 kts 268°
2026-04-16 14:00 22.15759 119.39033 23455 ft 409 kts 268°
2026-04-16 14:01 22.15676 119.35860 23837 ft 410 kts 268°
2026-04-16 14:01 22.15594 119.32794 24198 ft 412 kts 268°
2026-04-16 14:01 22.15509 119.29642 24566 ft 414 kts 268°
2026-04-16 14:01 22.15424 119.26561 24919 ft 416 kts 268°
2026-04-16 14:02 22.15339 119.23446 25265 ft 418 kts 268°
2026-04-16 14:02 22.15252 119.20319 25606 ft 419 kts 268°
2026-04-16 14:02 22.15163 119.17160 25935 ft 421 kts 268°
2026-04-16 14:02 22.15074 119.14033 26251 ft 423 kts 268°
2026-04-16 14:03 22.15054 119.10861 26565 ft 425 kts 270°
2026-04-16 14:03 22.15189 119.07668 26891 ft 427 kts 273°
2026-04-16 14:03 22.15478 119.04492 27215 ft 428 kts 276°
2026-04-16 14:03 22.15856 119.01311 27522 ft 430 kts 276°
2026-04-16 14:04 22.16242 118.98143 27818 ft 432 kts 277°
2026-04-16 14:04 22.16634 118.94923 28129 ft 433 kts 276°
2026-04-16 14:04 22.17022 118.91688 28444 ft 434 kts 276°
2026-04-16 14:04 22.17408 118.88457 28747 ft 436 kts 276°
2026-04-16 14:05 22.17795 118.85216 29035 ft 437 kts 276°
2026-04-16 14:05 22.18186 118.81950 29410 ft 436 kts 276°
2026-04-16 14:05 22.18568 118.78747 29825 ft 435 kts 276°
2026-04-16 14:05 22.18951 118.75522 30222 ft 433 kts 276°
2026-04-16 14:06 22.19330 118.72330 30605 ft 432 kts 276°
2026-04-16 14:06 22.19708 118.69140 31014 ft 430 kts 276°
2026-04-16 14:06 22.20085 118.65948 31427 ft 429 kts 276°
2026-04-16 14:06 22.20459 118.62771 31836 ft 427 kts 276°
2026-04-16 14:07 22.20829 118.59608 32245 ft 426 kts 276°
2026-04-16 14:07 22.21201 118.56426 32643 ft 424 kts 276°
2026-04-16 14:07 22.21566 118.53309 33079 ft 423 kts 276°
2026-04-16 14:07 22.21934 118.50166 33532 ft 422 kts 276°
2026-04-16 14:08 22.22304 118.47021 33967 ft 421 kts 276°
2026-04-16 14:08 22.22671 118.43887 34383 ft 420 kts 276°
2026-04-16 14:08 22.23034 118.40775 34774 ft 419 kts 276°
2026-04-16 14:08 22.23392 118.37700 35170 ft 419 kts 276°
2026-04-16 14:09 22.23754 118.34589 35564 ft 417 kts 275°
2026-04-16 14:09 22.24116 118.31466 35960 ft 416 kts 276°
2026-04-16 14:09 22.24475 118.28371 36319 ft 416 kts 275°
2026-04-16 14:09 22.24831 118.25278 36598 ft 417 kts 275°
2026-04-16 14:10 22.25184 118.22204 36818 ft 418 kts 275°
2026-04-16 14:10 22.25541 118.19091 37036 ft 420 kts 275°
2026-04-16 14:10 22.25902 118.15949 37256 ft 421 kts 275°
2026-04-16 14:10 22.26261 118.12824 37460 ft 423 kts 275°
2026-04-16 14:11 22.26612 118.09677 37663 ft 424 kts 275°
2026-04-16 14:11 22.26958 118.06529 37857 ft 425 kts 275°
2026-04-16 14:11 22.27651 118.00184 37903 ft 426 kts 275°
2026-04-16 14:12 22.28374 117.93844 37904 ft 426 kts 275°
2026-04-16 14:12 22.29102 117.87516 37904 ft 426 kts 275°
2026-04-16 14:13 22.29824 117.81187 37909 ft 427 kts 275°
2026-04-16 14:13 22.30548 117.74813 37911 ft 427 kts 275°
2026-04-16 14:14 22.31267 117.68458 37913 ft 427 kts 275°
2026-04-16 14:14 22.31977 117.62141 37914 ft 426 kts 275°
2026-04-16 14:15 22.32686 117.55807 37913 ft 426 kts 275°
2026-04-16 14:15 22.33208 117.49449 37912 ft 424 kts 271°
2026-04-16 14:16 22.33213 117.43111 37912 ft 424 kts 268°
2026-04-16 14:16 22.33102 117.36730 37918 ft 425 kts 268°
2026-04-16 14:17 22.32985 117.30353 37920 ft 425 kts 267°
2026-04-16 14:17 22.32865 117.23980 37920 ft 425 kts 267°
2026-04-16 14:18 22.32745 117.17647 37918 ft 424 kts 267°
2026-04-16 14:18 22.32620 117.11294 37919 ft 424 kts 267°
2026-04-16 14:19 22.32494 117.04947 37920 ft 424 kts 267°
2026-04-16 14:19 22.32366 116.98583 37924 ft 423 kts 267°
2026-04-16 14:20 22.32237 116.92238 37924 ft 423 kts 267°
2026-04-16 14:20 22.32105 116.85904 37924 ft 423 kts 267°
2026-04-16 14:21 22.31970 116.79555 37925 ft 424 kts 267°
2026-04-16 14:21 22.31832 116.73188 37924 ft 425 kts 267°
2026-04-16 14:22 22.31693 116.66820 37924 ft 425 kts 267°
2026-04-16 14:22 22.31551 116.60435 37925 ft 425 kts 267°
2026-04-16 14:23 22.31407 116.54076 37925 ft 425 kts 268°
2026-04-16 14:23 22.31261 116.47719 37925 ft 424 kts 268°
2026-04-16 14:24 22.31108 116.41171 37925 ft 424 kts 267°
2026-04-16 14:24 22.30955 116.34830 37924 ft 424 kts 267°
2026-04-16 14:25 22.30801 116.28489 37925 ft 424 kts 267°
2026-04-16 14:25 22.30645 116.22116 37925 ft 425 kts 267°
2026-04-16 14:26 22.30485 116.15735 37925 ft 425 kts 267°
2026-04-16 14:26 22.30324 116.09397 37782 ft 425 kts 267°
2026-04-16 14:27 22.30240 116.06132 37487 ft 422 kts 267°
2026-04-16 14:27 22.30157 116.02971 37201 ft 419 kts 267°
2026-04-16 14:27 22.30076 115.99848 36849 ft 416 kts 267°
2026-04-16 14:27 22.29993 115.96739 36379 ft 415 kts 267°
2026-04-16 14:28 22.29910 115.93638 35794 ft 415 kts 267°
2026-04-16 14:28 22.29825 115.90536 35104 ft 414 kts 268°
2026-04-16 14:28 22.29741 115.87440 34388 ft 414 kts 268°
2026-04-16 14:28 22.29656 115.84342 33657 ft 414 kts 268°
2026-04-16 14:29 22.29573 115.81248 32915 ft 414 kts 268°
2026-04-16 14:29 22.29494 115.78174 32209 ft 414 kts 268°
2026-04-16 14:29 22.29414 115.75066 31469 ft 416 kts 268°
2026-04-16 14:29 22.29331 115.71928 30671 ft 418 kts 268°
2026-04-16 14:30 22.29249 115.68825 29849 ft 421 kts 268°
2026-04-16 14:30 22.29161 115.65659 29011 ft 423 kts 268°
2026-04-16 14:30 22.29073 115.62496 28273 ft 422 kts 268°
2026-04-16 14:30 22.28987 115.59388 27743 ft 417 kts 268°
2026-04-16 14:31 22.28901 115.56280 27213 ft 411 kts 268°
2026-04-16 14:31 22.28816 115.53204 26683 ft 407 kts 268°
2026-04-16 14:31 22.28732 115.50190 26151 ft 402 kts 268°
2026-04-16 14:31 22.28648 115.47221 25624 ft 399 kts 268°
2026-04-16 14:32 22.28564 115.44236 25093 ft 395 kts 268°
2026-04-16 14:32 22.28482 115.41318 24564 ft 391 kts 268°
2026-04-16 14:32 22.28399 115.38397 24033 ft 388 kts 267°
2026-04-16 14:32 22.28315 115.35483 23530 ft 384 kts 267°
2026-04-16 14:33 22.28231 115.32644 23048 ft 381 kts 266°
2026-04-16 14:33 22.28142 115.29780 22571 ft 377 kts 266°
2026-04-16 14:33 22.28056 115.26997 22108 ft 374 kts 267°
2026-04-16 14:33 22.27969 115.24182 21632 ft 371 kts 267°
2026-04-16 14:34 22.27883 115.21403 21168 ft 368 kts 267°
2026-04-16 14:34 22.27798 115.18665 20716 ft 366 kts 267°
2026-04-16 14:34 22.27714 115.15937 20243 ft 362 kts 267°
2026-04-16 14:34 22.27629 115.13239 19443 ft 367 kts 267°
2026-04-16 14:35 22.27541 115.10457 18456 ft 376 kts 267°
2026-04-16 14:35 22.27450 115.07622 17429 ft 384 kts 268°
2026-04-16 14:35 22.27361 115.04742 16600 ft 386 kts 268°
2026-04-16 14:35 22.27272 115.01899 15965 ft 383 kts 268°
2026-04-16 14:36 22.27182 114.99040 15319 ft 380 kts 268°
2026-04-16 14:36 22.27090 114.96188 14667 ft 378 kts 268°
2026-04-16 14:36 22.26998 114.93366 14007 ft 377 kts 268°
2026-04-16 14:36 22.26909 114.90585 13585 ft 368 kts 268°
2026-04-16 14:37 22.26820 114.87862 13148 ft 361 kts 267°
2026-04-16 14:37 22.26732 114.85188 12742 ft 352 kts 267°
2026-04-16 14:37 22.26644 114.82564 12311 ft 347 kts 268°
2026-04-16 14:37 22.26559 114.80023 11933 ft 339 kts 268°
2026-04-16 14:38 22.26501 114.77535 11408 ft 324 kts 272°
2026-04-16 14:38 22.27076 114.75281 11036 ft 307 kts 301°
2026-04-16 14:38 22.28571 114.73756 10987 ft 291 kts 330°
2026-04-16 14:38 22.30463 114.73155 10982 ft 277 kts 355°
2026-04-16 14:39 22.32316 114.73429 10981 ft 264 kts 19°
2026-04-16 14:39 22.33865 114.74438 10985 ft 263 kts 43°
2026-04-16 14:39 22.34936 114.76054 10991 ft 264 kts 67°
2026-04-16 14:39 22.35320 114.77962 10994 ft 264 kts 88°
2026-04-16 14:40 22.35281 114.79941 10991 ft 264 kts 103°
2026-04-16 14:40 22.34511 114.81707 10982 ft 261 kts 131°
2026-04-16 14:40 22.33133 114.82941 10990 ft 258 kts 155°
2026-04-16 14:40 22.31434 114.83514 10992 ft 254 kts 177°
2026-04-16 14:41 22.29693 114.83325 10984 ft 250 kts 202°
2026-04-16 14:41 22.28272 114.82294 10989 ft 247 kts 231°
2026-04-16 14:41 22.27362 114.80729 11012 ft 247 kts 242°
2026-04-16 14:41 22.26508 114.79039 11021 ft 268 kts 242°
2026-04-16 14:42 22.25566 114.77270 10965 ft 276 kts 235°
2026-04-16 14:42 22.24231 114.75729 10973 ft 291 kts 225°
2026-04-16 14:42 22.22679 114.74146 10989 ft 319 kts 224°
2026-04-16 14:42 22.21042 114.72491 10986 ft 327 kts 224°
2026-04-16 14:43 22.19382 114.70807 10987 ft 328 kts 224°
2026-04-16 14:43 22.17717 114.69108 10985 ft 329 kts 224°
2026-04-16 14:43 22.16065 114.67418 10982 ft 329 kts 225°
2026-04-16 14:43 22.14392 114.65704 10979 ft 329 kts 225°
2026-04-16 14:44 22.12732 114.63998 10971 ft 328 kts 225°
2026-04-16 14:44 22.11081 114.62302 10654 ft 329 kts 225°
2026-04-16 14:44 22.09466 114.60644 10384 ft 309 kts 225°
2026-04-16 14:44 22.07961 114.59100 10202 ft 292 kts 225°
2026-04-16 14:45 22.06493 114.57591 10050 ft 290 kts 224°
2026-04-16 14:45 22.05023 114.56082 9734 ft 291 kts 224°
2026-04-16 14:45 22.03563 114.54585 9334 ft 289 kts 225°
2026-04-16 14:45 22.02285 114.52943 8945 ft 286 kts 237°
2026-04-16 14:46 22.01383 114.51058 8881 ft 285 kts 247°
2026-04-16 14:46 22.00626 114.49097 8895 ft 274 kts 249°
2026-04-16 14:46 21.99947 114.47282 8906 ft 251 kts 249°
2026-04-16 14:46 21.99320 114.45606 8918 ft 235 kts 249°
2026-04-16 14:47 21.98719 114.44008 8922 ft 223 kts 249°
2026-04-16 14:47 21.98134 114.42463 8953 ft 228 kts 249°
2026-04-16 14:47 21.97524 114.40863 8975 ft 229 kts 249°
2026-04-16 14:47 21.96921 114.39287 8983 ft 229 kts 249°
2026-04-16 14:48 21.96319 114.37711 8985 ft 228 kts 248°
2026-04-16 14:48 21.95715 114.36131 8986 ft 228 kts 248°
2026-04-16 14:48 21.95109 114.34546 8987 ft 228 kts 248°
2026-04-16 14:48 21.94498 114.32958 8986 ft 228 kts 248°
2026-04-16 14:49 21.93889 114.31377 8986 ft 228 kts 248°
2026-04-16 14:49 21.93281 114.29797 8987 ft 229 kts 248°
2026-04-16 14:49 21.92670 114.28209 8986 ft 229 kts 248°
2026-04-16 14:49 21.92064 114.26633 8987 ft 229 kts 248°
2026-04-16 14:50 21.91422 114.24957 8986 ft 230 kts 248°
2026-04-16 14:50 21.90806 114.23348 8987 ft 230 kts 248°
2026-04-16 14:50 21.90202 114.21777 8988 ft 229 kts 249°
2026-04-16 14:50 21.89742 114.20131 8983 ft 229 kts 265°
2026-04-16 14:51 21.89823 114.18428 8990 ft 229 kts 284°
2026-04-16 14:51 21.90422 114.16832 8994 ft 229 kts 298°
2026-04-16 14:51 21.91196 114.15348 9087 ft 229 kts 299°
2026-04-16 14:51 21.91995 114.13854 9050 ft 229 kts 299°
2026-04-16 14:53 21.97441 114.03342 8836 ft 225 kts 298°
2026-04-16 14:53 21.98191 114.01892 8521 ft 219 kts 298°
2026-04-16 14:54 21.98921 114.00485 8229 ft 212 kts 298°
2026-04-16 14:54 21.99623 113.99133 7955 ft 205 kts 298°
2026-04-16 14:54 22.00310 113.97807 7689 ft 198 kts 297°
2026-04-16 14:54 22.00991 113.96565 7427 ft 192 kts 303°
2026-04-16 14:55 22.01856 113.95476 7104 ft 190 kts 310°
2026-04-16 14:55 22.02770 113.94443 6741 ft 189 kts 311°
2026-04-16 14:55 22.03663 113.93423 6415 ft 187 kts 310°
2026-04-16 14:55 22.04552 113.92422 6138 ft 182 kts 314°
2026-04-16 14:56 22.05509 113.91553 5864 ft 178 kts 319°
2026-04-16 14:56 22.06480 113.90743 5591 ft 173 kts 320°
2026-04-16 14:56 22.07429 113.89958 5318 ft 169 kts 320°
2026-04-16 14:56 22.08355 113.89203 5049 ft 165 kts 320°
2026-04-16 14:57 22.09301 113.88425 4821 ft 186 kts 319°
2026-04-16 14:57 22.10364 113.87547 4580 ft 195 kts 320°
2026-04-16 14:57 22.11446 113.86650 4505 ft 195 kts 320°
2026-04-16 14:57 22.12531 113.85759 4504 ft 196 kts 320°
2026-04-16 14:58 22.13619 113.84862 4501 ft 196 kts 320°
2026-04-16 14:58 22.15816 113.83063 4501 ft 196 kts 320°
2026-04-16 14:58 22.16901 113.82179 4502 ft 196 kts 320°
2026-04-16 14:59 22.17993 113.81281 4412 ft 197 kts 320°
2026-04-16 14:59 22.19095 113.80376 4053 ft 197 kts 320°
2026-04-16 14:59 22.20177 113.79486 3650 ft 198 kts 320°
2026-04-16 14:59 22.21287 113.78571 3212 ft 201 kts 320°
2026-04-16 15:00 22.22403 113.77640 2775 ft 202 kts 320°
2026-04-16 15:00 22.23500 113.76720 2383 ft 201 kts 320°
2026-04-16 15:00 22.24593 113.75799 2023 ft 197 kts 320°
2026-04-16 15:00 22.25606 113.74834 1660 ft 189 kts 303°
2026-04-16 15:01 22.25876 113.73611 1560 ft 153 kts 262°
2026-04-16 15:01 22.25740 113.72548 1545 ft 139 kts 271°
2026-04-16 15:01 22.26208 113.71680 1544 ft 141 kts 328°
2026-04-16 15:01 22.27165 113.71583 1577 ft 143 kts 21°
2026-04-16 15:02 22.27839 113.72333 1589 ft 141 kts 74°
2026-04-16 15:02 22.27928 113.73368 1599 ft 138 kts 107°
2026-04-16 15:02 22.27554 113.74323 1610 ft 136 kts 122°
2026-04-16 15:02 22.27089 113.75234 1603 ft 137 kts 122°
2026-04-16 15:03 22.26729 113.76183 1583 ft 139 kts 96°
2026-04-16 15:03 22.26983 113.77197 1607 ft 143 kts 70°
2026-04-16 15:03 22.27340 113.78194 1604 ft 143 kts 72°
2026-04-16 15:03 22.27674 113.79212 1605 ft 143 kts 73°
2026-04-16 15:04 22.28003 113.80232 1600 ft 142 kts 73°
2026-04-16 15:04 22.28325 113.81239 1601 ft 142 kts 73°
2026-04-16 15:04 22.28649 113.82257 1601 ft 143 kts 73°
2026-04-16 15:04 22.28977 113.83270 1583 ft 143 kts 72°
2026-04-16 15:05 22.29358 113.84311 1076 ft 155 kts 71°
2026-04-16 15:05 22.29698 113.85390 718 ft 148 kts 73°
2026-04-16 15:05 22.30014 113.86412 484 ft 137 kts 73°
2026-04-16 15:05 22.30314 113.87376 405 ft 134 kts 72°
2026-04-16 15:06 22.30626 113.88309 403 ft 128 kts 72°
2026-04-16 15:06 22.30915 113.89217 192 ft 124 kts 74°
2026-04-16 15:06 22.31195 113.90096 60 ft 119 kts 75°
2026-04-16 15:06 22.31406 113.90826 29 ft 77 kts 70°
2026-04-16 15:07 22.31546 113.91228 29 ft 42 kts 70°
2026-04-16 15:07 22.31636 113.91511 29 ft 37 kts 79°
2026-04-16 15:07 22.31631 113.91715 29 ft 16 kts 101°
2026-04-16 15:07 22.31606 113.91833 29 ft 14 kts 105°
2026-04-16 15:08 22.31602 113.91926 29 ft 12 kts 82°
2026-04-16 15:08 22.31606 113.91970 29 ft 0 kts 94°
2026-04-16 15:08 22.31583 113.91991 29 ft 5 kts 154°
2026-04-16 15:08 22.31543 113.92007 29 ft 7 kts 163°
2026-04-16 15:09 22.31490 113.92026 29 ft 8 kts 162°
2026-04-16 15:09 22.31431 113.92053 29 ft 9 kts 147°
2026-04-16 15:09 22.31393 113.92117 29 ft 10 kts 113°
2026-04-16 15:09 22.31367 113.92196 29 ft 11 kts 94°
2026-04-16 15:10 22.31400 113.92244 29 ft 7 kts 37°
2026-04-16 15:10 22.31440 113.92267 29 ft 0 kts